Regional Weather Roundup
Issued by NWS Newport/Morehead, NC

Home | Current Version | Previous Version | Text Only | Print | Product List | Glossary On
Versions: 1 2 3 4 5 6 7 8 9 10 11 12 13 14 15 16 17 18 19 20 21 22 23 24 25 26 27 28 29 30 31 32 33 34 35 36 37 38 39 40 41 42 43 44 45 46 47 48 49 50
000
ASUS42 KMHX 260122
RWRMHX
WEATHER ROUNDUP FOR EASTERN NORTH CAROLINA
NATIONAL WEATHER SERVICE NEWPORT/MOREHEAD CITY NC
900 PM EDT FRI JUL 25 2014

NOTE: "FAIR" INDICATES FEW OR NO CLOUDS BELOW 12,000 FEET
WITH NO SIGNIFICANT WEATHER AND/OR OBSTRUCTIONS TO VISIBILITY

NCZ015>017-031-032-045>047-102-103-260200-
NORTH COAST

CITY           SKY/WX    TMP DP  RH WIND       PRES   REMARKS
EDENTON        PTCLDY    73  65  78 CALM      30.05S
ELIZABETH CITY CLEAR     72  60  66 E6        30.05R
KITTY HAWK     CLEAR     73  59  61 E3        30.05R
MANTEO         NOT AVBL

$$

NCZ045>047-081-094-103-104-260200-
CENTRAL COAST

CITY           SKY/WX    TMP DP  RH WIND       PRES   REMARKS
FRISCO         PTCLDY    75  69  81 NE5       30.05R
SWANQUARTER      N/A     73 N/A N/A NE2       30.00S

$$

NCZ095-097-098-100-101-260200-
SOUTHERN COAST

CITY           SKY/WX    TMP DP  RH WIND       PRES   REMARKS
BEAUFORT       CLOUDY    79  70  74 E3        30.03R
CEDAR ISLAND     N/A     79 N/A N/A E6G13     30.09S
JACKSONVILLE   CLOUDY    78  71  79 E6        30.02R
NEWPORT        NOT AVBL
PINEY ISLAND   CLOUDY    80  72  76 E8        30.03S
WILMINGTON     CLOUDY    79  74  84 NE3       30.02R


$$

NCZ011>013-027>030-043-044-078>080-089-090>093-098-260200-
COASTAL PLAIN

CITY           SKY/WX    TMP DP  RH WIND       PRES   REMARKS
AHOSKIE        CLEAR     72  69  90 CALM      30.04F
CLINTON        CLOUDY    77  74  88 CALM      30.03S
ELIZABETHTOWN  MOCLDY    77  75  94 CALM      30.02R
GOLDSBORO      CLOUDY    78  76  94 SE3       30.01R
GREENVILLE     MOCLDY    77  72  83 CALM      30.05R
HAVELOCK       CLOUDY    77  69  76 E5        30.04R
KENANSVILLE    CLOUDY    75  72  90 CALM      30.04R
KINSTON        NOT AVBL
NEW BERN       CLOUDY    79  72  79 CALM      30.04R
RICHLANDS      CLOUDY    75  70  83 CALM      30.04R
ROANOKE RAPIDS NOT AVBL
ROCKY MOUNT    MOCLDY    74  70  87 E3        30.03S
WASHINGTON     MOCLDY    75  71  86 E6        30.04R
WHITEVILLE     MOCLDY    77  74  91 CALM      30.01S

$$

AMZ130-135-150-152-154-156-158-170-250-252-270-ANZ085-086-088-633-658-670-260200-
MARINE OBSERVATIONS

STATION/POSITION TIME  TEMP    WIND        PRES    WAVE   SWELL
                       AIR SEA DIR/SP/G            HT/PER HT/PER
                 (UTC) (F)     (DEG/KT/KT) (MB)    (FT/S) (FT/S)
CHESAPEAKE LIGHT NOT AVBL
BUOY 44014       0100   76 78  310/  4/  6 1017.5    3/ 7   2/ 7
DUCK             0100   76 77   80/  7/  8 1017.0
2E DUCK          0100                        N/A     2/ 5
OREGON INLET     0100   75 81   50/  7/  9 1017.3
BUOY 44095       0100      78                N/A     3/ 7
20E OREGON INLET NOT AVBL
HATTERAS CG      0100   76 81   50/  6/ 10 1017.8
DIAMOND BUOY     0100          VRB 10/ 12  1017.1    3/ 7   2/ 7
CAPE LOOKOUT     0100   79      80/  8/  9 1016.7
BEAUFORT LAB     0100   78 81   60/  4/  5 1016.5
30 SE NEW RIVER  0100   79 81   50/  8/  8 1016.7    3/ 6   3/ 6
5 SE WRIGHTSVILL 0100   76 81   90/  6/  6   N/A
BUOY 41002       0013   81 82  240/ 14/ 16 1017.7    4/ 8   3/ 8
BUOY 41004       0100   83 83  230/ 12/ 16 1015.2    3/ 5   2/ 7

$$



USA.gov is the U.S. government's official web portal to all federal, state and local government web resources and services.